Theta_e
345 348 359 361 361 361 359 359 361 360 360 359 359 358 357 357 357 358 357 356 353 350 349 348 347 346 345 345 347 348 345 347
345 346 355 361 361 361 359 358 359 360 361 360 359 358 357 358 357 357 357 356 355 353 352 351 349 348 348 348 348 350 343 341
346 347 350 360 360 360 360 359 359 359 360 360 360 359 358 357 357 357 357 356 356 355 354 353 352 351 351 350 348 349 343 338
349 349 351 352 358 360 360 360 359 358 358 359 359 359 359 358 358 358 358 358 357 356 355 354 353 352 352 351 352 349 346 340
351 349 349 352 350 353 356 359 359 358 357 358 358 359 359 359 358 359 357 358 359 357 356 356 355 354 353 353 351 350 350 349
350 351 350 348 350 351 352 355 358 356 356 356 355 357 357 355 356 357 357 355 357 357 357 357 358 356 355 355 353 353 351 352
347 349 351 350 348 349 349 353 354 352 351 350 349 351 349 353 355 354 356 357 357 357 357 357 357 357 356 351 351 351 350 350
346 349 351 352 353 348 345 350 352 351 352 353 352 351 350 349 352 351 352 352 354 354 353 353 353 352 351 352 352 354 352 351
346 350 351 352 354 354 349 349 350 350 352 350 350 352 349 346 347 348 347 348 351 350 350 352 351 351 350 351 351 351 352 352
345 348 351 353 354 354 354 350 349 349 350 350 350 351 348 345 345 345 346 346 347 348 348 349 351 352 349 347 345 347 347 349
345 346 350 352 355 354 353 353 350 349 349 351 350 349 351 347 346 343 344 344 346 348 350 351 351 352 350 349 347 347 348 350
344 345 348 352 353 354 353 353 353 349 348 348 349 352 351 350 349 346 342 342 343 349 350 351 351 351 349 348 348 348 348 349
345 343 347 346 349 354 353 352 352 352 350 348 349 350 350 349 350 347 343 342 343 346 348 347 348 348 348 347 347 347 348 349
340 341 343 343 345 348 351 351 351 352 350 349 348 348 349 348 347 348 344 346 348 346 348 348 349 349 347 348 346 347 349 349
343 343 342 343 344 342 344 345 345 345 345 345 345 346 348 347 346 348 347 348 349 347 348 350 350 351 349 347 344 343 347 349
342 343 344 346 346 345 342 341 341 340 342 343 344 346 347 346 347 350 348 349 350 348 350 352 351 350 347 348 344 344 345 348
332 334 336 338 342 346 345 346 345 346 349 348 351 351 350 349 350 350 350 349 351 348 348 350 350 346 346 348 342 341 333 337
330 331 333 335 339 344 347 348 349 351 350 344 343 344 347 346 352 351 351 351 350 348 347 347 348 349 340 346 347 339 332 328
328 331 333 335 336 338 338 336 334 333 333 336 335 338 338 339 340 346 353 351 352 346 344 344 346 341 337 335 343 344 345 342
Wind_Speed
18 18 19 17 17 17 17 16 14 14 14 13 14 14 14 14 13 12 12 11 11 11 10 10 9 7 6 6 5 4 6 10
16 15 17 18 18 18 18 16 14 13 13 13 13 13 12 12 11 11 11 11 11 10 9 8 7 6 5 5 5 5 8 8
16 15 15 14 15 16 15 15 13 12 11 11 11 11 11 11 10 9 9 9 9 9 8 7 6 5 4 4 4 5 8 5
13 13 12 14 13 12 12 12 12 12 12 11 10 10 9 10 8 8 7 7 8 8 7 6 6 5 4 3 3 4 7 6
13 13 12 11 12 12 12 14 14 13 12 12 12 12 10 9 9 8 7 8 8 7 6 5 5 4 5 3 2 3 4 6
11 12 12 12 12 11 11 11 12 13 13 11 11 10 9 8 9 9 5 3 5 4 4 4 5 5 4 5 4 5 5 4
15 15 12 13 13 12 10 11 11 10 9 9 9 10 8 8 7 6 5 6 6 4 4 4 5 6 8 4 4 7 5 5
14 11 14 13 13 13 11 8 6 6 6 7 10 9 8 7 6 6 4 5 5 5 5 5 5 5 5 5 4 3 4 5
13 15 15 15 12 12 8 7 8 7 7 6 8 10 7 6 6 5 4 4 4 4 4 5 3 4 6 6 8 7 6 5
16 16 14 14 12 12 11 8 9 9 9 9 9 10 8 8 6 6 5 5 5 4 4 5 4 4 5 7 7 8 8 6
15 14 14 14 13 12 11 11 9 8 10 9 8 9 11 8 7 6 5 5 6 5 5 5 4 5 5 7 9 8 9 8
7 8 11 12 12 13 12 11 9 9 9 9 8 9 10 9 8 7 6 6 6 5 6 5 5 5 6 7 10 8 7 8
4 3 6 7 10 12 11 8 7 7 7 6 6 5 9 9 8 6 6 5 5 4 6 5 5 6 7 7 8 7 6 5
7 5 4 1 6 8 8 8 7 8 6 5 5 5 7 10 10 8 6 6 7 6 6 5 6 6 6 7 8 7 6 6
7 7 6 4 4 1 4 4 4 5 6 5 6 6 8 7 9 8 6 7 7 7 7 6 9 8 8 7 8 7 5 5
11 10 8 6 3 3 3 2 4 6 5 5 6 8 9 7 8 8 7 9 9 9 9 10 10 11 8 8 6 6 6 6
12 11 10 10 10 7 4 1 2 3 2 2 3 5 7 8 9 10 10 10 11 8 10 11 12 8 6 5 4 3 4 4
14 13 12 11 12 11 12 8 7 5 5 6 7 7 9 11 8 9 11 9 8 8 9 11 10 9 9 4 9 5 3 3
14 13 9 9 11 9 7 11 17 9 4 3 5 5 6 10 11 9 7 8 8 5 7 5 5 5 5 7 4 8 4 3
Wind_Direction
158 161 154 160 159 158 155 152 150 146 139 139 137 138 135 133 131 128 127 128 125 124 121 118 115 112 106 96 81 71 74 139
163 167 164 163 162 161 158 155 152 150 143 143 143 143 142 138 142 136 137 135 133 131 130 129 127 122 110 96 78 81 119 131
167 169 165 169 163 160 160 155 153 148 146 146 146 147 150 150 151 148 150 148 144 144 146 147 145 139 127 107 89 70 145 162
176 174 171 173 169 159 156 153 152 152 152 151 152 155 157 162 165 164 170 174 167 168 168 170 170 167 163 155 137 126 170 177
178 181 178 179 179 174 167 164 164 166 160 160 161 164 166 168 180 190 195 194 195 189 189 203 205 204 190 199 204 180 193 198
188 186 185 181 178 182 178 175 176 172 169 165 170 171 170 190 186 182 183 194 224 206 205 241 242 251 261 220 222 230 233 248
190 188 193 191 187 185 185 183 189 181 184 183 186 184 193 191 196 209 210 226 249 254 262 271 269 270 262 273 213 207 242 259
192 194 200 196 197 195 194 188 188 190 187 188 190 193 193 190 198 204 208 212 223 207 242 222 232 254 281 292 279 270 269 258
198 204 201 199 201 202 201 196 187 192 195 198 200 195 191 196 197 207 213 214 226 229 248 254 266 287 287 282 282 280 258 263
206 205 203 201 205 204 205 197 198 198 197 200 200 198 200 203 200 205 208 226 234 232 244 254 257 268 276 273 277 281 281 278
212 205 200 206 206 210 216 214 209 205 207 206 207 207 205 206 198 203 205 226 243 241 247 264 285 292 284 291 281 271 278 278
230 227 216 211 209 219 223 223 221 218 210 215 217 212 214 215 210 207 209 224 244 252 270 281 283 270 267 267 266 262 268 276
249 291 243 235 228 232 233 238 240 245 241 241 239 227 222 223 228 218 223 234 246 252 254 255 262 258 258 258 260 253 242 244
77 72 80 336 262 262 254 260 253 266 249 261 266 247 233 228 223 223 222 228 236 238 243 254 258 246 246 242 241 240 236 242
78 78 85 98 108 158 242 234 260 259 257 243 246 251 250 248 240 225 233 236 234 246 243 236 249 236 247 253 251 241 256 254
60 70 73 80 87 144 171 232 242 255 253 244 244 241 242 245 244 231 227 226 214 224 231 227 238 238 239 242 255 237 243 244
62 62 66 70 75 80 110 95 299 278 272 312 340 343 304 270 238 226 226 229 220 220 216 225 221 236 238 209 247 260 256 216
70 73 75 75 76 81 89 81 69 54 51 33 36 24 0 354 314 244 234 228 224 225 222 220 226 233 246 192 222 262 222 253
75 73 76 79 78 77 97 103 96 94 76 27 39 25 11 358 328 337 264 226 198 202 264 322 322 281 326 297 229 238 264 318